This demonstration page uses our WeatherBlox Daily Observations layout. Learn more.

Left ArrowRight Arrow

38.80484, -77.04692

Hourly Observations for November 17, 2021

Temp ( °F °C ) Dew Point ( °F °C ) Humidity (%) Winds ( mph kmh ) Pressure ( in mb ) Visibility ( mi km ) Precip ( " mm )
12:52 am 00:52 Partly Cloudy 42 5.6 35 1.7 76 76 NE 6 9 30.26 1025 10 16 N/A
1:52 am 01:52 Partly Cloudy 41 5 35 1.7 79 79 NE 8 13 30.26 1025 10 16 N/A
2:52 am 02:52 Partly Cloudy 41 5 36 2.2 82 82 ENE 6 9 30.25 1024 10 16 N/A
3:52 am 03:52 Mostly Cloudy 41 5 36 2.2 82 82 NE 7 11 30.24 1024 10 16 N/A
4:52 am 04:52 Mostly Cloudy 41 5 35 1.7 79 79 NNE 3 6 30.25 1025 10 16 N/A
5:52 am 05:52 Cloudy 40 4.4 36 2.2 86 86 NE 3 6 30.25 1025 10 16 N/A
6:52 am 06:52 Mostly Cloudy 41 5 36 2.2 82 82 NE 6 9 30.26 1025 10 16 N/A
7:52 am 07:52 Mostly Cloudy 43 6.1 38 3.3 82 82 N N/A 30.28 1025 10 16 N/A
8:52 am 08:52 Mostly Sunny 47 8.3 40 4.4 77 77 N N/A 30.28 1025 10 16 N/A
9:52 am 09:52 Cloudy 49 9.4 41 5 74 74 SSW 3 6 30.28 1025 10 16 N/A
10:52 am 10:52 Mostly Cloudy 52 11.1 40 4.4 64 64 SSE 3 6 30.27 1025 10 16 N/A
11:52 am 11:52 Partly Cloudy 56 13.3 40 4.4 55 55 S 8 13 30.24 1024 10 16 N/A
12:52 pm 12:52 Mostly Sunny 60 15.6 41 5 50 50 S 7 11 30.19 1023 10 16 N/A
1:52 pm 13:52 Mostly Sunny 62 16.7 42 5.6 48 48 S 6 9 30.17 1022 10 16 N/A
2:52 pm 14:52 Partly Cloudy 64 17.8 42 5.6 45 45 S 8 13 30.16 1021 10 16 N/A
3:52 pm 15:52 Partly Cloudy 62 16.7 44 6.7 52 52 S 8 13 30.15 1021 10 16 N/A
4:52 pm 16:52 Mostly Sunny 60 15.6 44 6.7 56 56 S 5 7 30.16 1021 10 16 N/A
5:52 pm 17:52 Mostly Clear 55 12.8 45 7.2 69 69 N N/A 30.16 1021 10 16 N/A
6:52 pm 18:52 Partly Cloudy 54 12.2 45 7.2 72 72 N N/A 30.16 1021 10 16 N/A
7:52 pm 19:52 Partly Cloudy 53 11.7 47 8.3 80 80 SSW 3 6 30.15 1021 10 16 N/A
8:52 pm 20:52 Mostly Clear 53 11.7 47 8.3 80 80 N N/A 30.14 1021 10 16 N/A
9:52 pm 21:52 Clear 53 11.7 47 8.3 80 80 S 8 13 30.14 1021 10 16 N/A
10:52 pm 22:52 Partly Cloudy 56 13.3 49 9.4 77 77 S 9 15 30.13 1020 10 16 N/A
11:52 pm 23:52 Partly Cloudy 58 14.4 49 9.4 72 72 S 12 19 30.12 1020 10 16 N/A

Powered by AerisWeather